This is the latest recevied weather packets stored in our database for station/object OK1FET-15. If no packets are shown the sender has not sent any weather packets the latest 10 day(s).
| Time | Temp. | Humidity | Pressure | Rain* | Wind** | Luminosity | Snow |
|---|---|---|---|---|---|---|---|
| 1787587863 | 20° C | 43% | 1019.6 hPa | - | - | - | - |
| 1787587556 | 20.56° C | 42% | 1019.6 hPa | - | - | - | - |
| 1787587248 | 20.56° C | 42% | 1019.7 hPa | - | - | - | - |
| 1787586940 | 21.11° C | 41% | 1019.9 hPa | - | - | - | - |
| 1787586632 | 21.11° C | 40% | 1019.9 hPa | - | - | - | - |
| 1787586324 | 22.22° C | 39% | 1019.9 hPa | - | - | - | - |
| 1787586016 | 22.78° C | 38% | 1019.9 hPa | - | - | - | - |
| 1787585708 | 22.78° C | 37% | 1020 hPa | - | - | - | - |
| 1787585400 | 23.89° C | 38% | 1020 hPa | - | - | - | - |
| 1787585092 | 25° C | 37% | 1020 hPa | - | - | - | - |
| 1787584784 | 25.56° C | 36% | 1020.2 hPa | - | - | - | - |
| 1787584475 | 26.11° C | 37% | 1020.2 hPa | - | - | - | - |
| 1787584167 | 25.56° C | 37% | 1020.2 hPa | - | - | - | - |
| 1787583859 | 25° C | 37% | 1020.3 hPa | - | - | - | - |
| 1787583551 | 25° C | 35% | 1020.3 hPa | - | - | - | - |
| 1787583242 | 25° C | 35% | 1020.4 hPa | - | - | - | - |
| 1787582934 | 25° C | 35% | 1020.4 hPa | - | - | - | - |
| 1787582626 | 25.56° C | 33% | 1020.5 hPa | - | - | - | - |
| 1787582317 | 26.67° C | 32% | 1020.4 hPa | - | - | - | - |
| 1787582009 | 27.22° C | 31% | 1020.4 hPa | - | - | - | - |
| 1787581700 | 28.89° C | 31% | 1020.6 hPa | - | - | - | - |
| 1787581392 | 29.44° C | 30% | 1020.6 hPa | - | - | - | - |
| 1787581083 | 30.56° C | 29% | 1020.6 hPa | - | - | - | - |
| 1787580774 | 31.11° C | 30% | 1020.7 hPa | - | - | - | - |
| 1787580465 | 31.11° C | 29% | 1020.7 hPa | - | - | - | - |
* Rain since midnight (hover to see other rain measurements)
** Current wind speed in m/s (hover to see current wind gust speed)